Content
SEND FEEDBACK

Daily
Averages
Monthly
Summary
United States of America

AGANA, GUAM


Home > North America > United States > Guam
Elevation: 246 feet     Latitude: 13 29N     Longitude: 144 48E

WEATHER
 
SELECT A DAY
Number of Records: 215,541;   Date Range: 1/1/95 - 12/18/14
 
SHARE

PRINT THIS DATA

[ ← Previous Day ]
WEATHER ALMANAC - JANUARY 6, 2013
[ Next Day → ]
[ °C ]   °F
Weather ElementAverageHighLow
Temperature76 °F84 °F (12:54 pm)73 °F (2:54 am)
Dewpoint73.3 °F75.2 °F (6:18 am)71.1 °F (2:54 pm)
Humidity92 %100 % (2:13 am)65 % (2:54 pm)
Barometer29.85 in29.92 in (8:51 am)29.79 in (2:54 pm)
Wind Speed11.5 mph23 mph (2:54 pm)
Wind Gust31.1 mph (2:54 pm)
Weather ElementAverage
Visibility6.4 mi
Wind DirectionE (85.5 °)

Weather ElementTotal
Precipitation3.85 in
Cooling Degree Days13.5 (Base 65)
Growing Degree Days28.5 (Base 50)
Averaged from 47 records on January 6, 2013
WEATHER CONDITIONS BREAKOUT
WIND DIRECTION BREAKOUT
WEATHER BY HOUR - JANUARY 6, 2013
[ °C ]   °F
Local TimeTemperatureDewpointHumidityBarometerVisibilityWind DirectionWind SpeedGust SpeedPrecipitationEventsConditions
1:54 AM73.9 °F72.0 °F93 %29.83 in7.0 miSE (130°)4.6 mph0.05 inRainRain
2:13 AM73.4 °F73.4 °F100 %29.84 in2.0 miCalm0.10 inRainHeavy Rain
2:24 AM73.4 °F73.4 °F100 %29.83 in9.0 miCalm0.13 inRainLight Rain
2:46 AM73.4 °F73.4 °F100 %29.82 in6.0 miCalm0.14 inRainLight Rain
2:54 AM73.0 °F73.0 °F100 %29.81 in9.0 miCalm0.14 inRainLight Rain
3:06 AM73.4 °F73.4 °F100 %29.83 in2.5 miSE (140°)3.5 mph0.02 inRainHeavy Rain
3:18 AM73.4 °F73.4 °F100 %29.83 in3.0 miCalm0.11 inRainRain
3:54 AM73.0 °F73.0 °F100 %29.81 in6.0 miSouth (180°)4.6 mph0.15 inRainLight Rain
4:09 AM73.4 °F73.4 °F100 %29.83 in2.5 miSE (140°)8.1 mph0.02 inRainLight Rain
4:12 AM73.4 °F73.4 °F100 %29.83 in3.0 miSSE (150°)8.1 mph0.03 inRainLight Rain
4:34 AM73.4 °F73.4 °F100 %29.83 in10.0 miSE (140°)4.6 mph0.03 inOvercast
4:51 AM73.4 °F73.4 °F100 %29.83 in7.0 miSE (140°)3.5 mph0.04 inRainRain
4:54 AM73.9 °F73.9 °F100 %29.81 in6.0 miSE (130°)4.6 mph0.04 inRainRain
5:05 AM73.4 °F73.4 °F100 %29.84 in5.0 miEast (100°)8.1 mph0.03 inRainRain
5:24 AM73.4 °F73.4 °F100 %29.84 in10.0 miEast (100°)9.2 mph0.04 inRainLight Rain
5:29 AM75.2 °F73.4 °F94 %29.84 in10.0 miEast (100°)9.2 mph16.1 mph0.04 inRainLight Rain
5:38 AM75.2 °F73.4 °F94 %29.84 in10.0 miEast (90°)12.7 mph0.04 inRainLight Rain
5:54 AM75.0 °F73.9 °F96 %29.83 in8.0 miEast (80°)11.5 mph0.05 inRainRain
6:18 AM75.2 °F75.2 °F100 %29.86 in2.5 miEast (80°)15.0 mph0.06 inRainHeavy Rain
6:32 AM73.4 °F73.4 °F100 %29.87 in2.5 miEast (80°)17.3 mph24.2 mph0.17 inRainHeavy Rain
6:40 AM73.4 °F73.4 °F100 %29.87 in3.0 miEast (90°)12.7 mph24.2 mph0.21 inRainHeavy Rain
6:54 AM73.9 °F73.9 °F100 %29.86 in4.0 miEast (100°)16.1 mph23.0 mph0.28 inRainHeavy Rain
7:03 AM73.4 °F73.4 °F100 %29.88 in4.0 miESE (110°)11.5 mph0.03 inRainHeavy Rain
7:14 AM73.4 °F73.4 °F100 %29.88 in2.0 miEast (100°)11.5 mph21.9 mph0.09 inRainHeavy Rain
7:30 AM73.4 °F73.4 °F100 %29.89 in1.5 miEast (90°)17.3 mph23.0 mph0.19 inRainHeavy Rain
7:40 AM73.4 °F73.4 °F100 %29.89 in1.2 miEast (90°)18.4 mph24.2 mph0.29 inRainHeavy Rain
7:52 AM73.4 °F73.4 °F100 %29.90 in1.2 miEast (90°)15.0 mph21.9 mph0.46 inRainHeavy Rain
7:54 AM73.9 °F73.9 °F100 %29.88 in1.5 miEast (90°)17.3 mph24.2 mph0.47 inRainHeavy Rain
8:03 AM73.4 °F73.4 °F100 %29.90 in2.0 miEast (90°)15.0 mph25.3 mph0.04 inRainHeavy Rain
8:23 AM73.4 °F73.4 °F100 %29.91 in2.5 miEast (100°)16.1 mph21.9 mph0.09 inRainRain
8:51 AM73.4 °F73.4 °F100 %29.92 in3.0 miESE (110°)10.4 mph20.7 mph0.13 inRainLight Rain
8:54 AM73.0 °F73.0 °F100 %29.91 in4.0 miESE (110°)11.5 mph0.14 inRainLight Rain
9:54 AM75.9 °F73.0 °F91 %29.89 in10.0 miEast (90°)8.1 mph0.00 inOvercast
10:54 AM81.0 °F73.9 °F79 %29.87 in10.0 miEast (80°)15.0 mph19.6 mphMostly Cloudy
11:54 AM82.9 °F73.0 °F72 %29.84 in10.0 miEast (80°)19.6 mph26.5 mphScattered Clouds
12:54 PM84.0 °F72.0 °F67 %29.81 in10.0 miENE (70°)20.7 mph28.8 mphScattered Clouds
1:54 PM84.0 °F73.0 °F69 %29.80 in10.0 miENE (60°)19.6 mph26.5 mphMostly Cloudy
2:54 PM84.0 °F71.1 °F65 %29.79 in10.0 miENE (70°)23.0 mph31.1 mphScattered Clouds
3:54 PM84.0 °F72.0 °F67 %29.79 in10.0 miENE (70°)20.7 mph26.5 mphScattered Clouds
4:54 PM82.9 °F73.0 °F72 %29.80 in10.0 miENE (70°)19.6 mph27.6 mphScattered Clouds
5:54 PM81.0 °F73.0 °F77 %29.81 in10.0 miENE (70°)19.6 mph24.2 mphPartly Cloudy
6:54 PM81.0 °F73.0 °F77 %29.83 in10.0 miENE (70°)11.5 mphPartly Cloudy
7:54 PM80.1 °F73.0 °F79 %29.83 in10.0 miENE (70°)13.8 mphClear
8:54 PM80.1 °F73.0 °F79 %29.84 in10.0 miENE (70°)15.0 mph0.00 inClear
9:54 PM79.0 °F73.9 °F84 %29.84 in10.0 miENE (70°)12.7 mphScattered Clouds
10:54 PM78.1 °F73.9 °F87 %29.84 in10.0 miENE (60°)12.7 mph0.00 inScattered Clouds
11:54 PM79.0 °F73.9 °F84 %29.84 in10.0 miENE (70°)12.7 mphMostly Cloudy
Hourly data recorded from PGUM, located miles away from Agana, Guam







STORIES FROM OUR PARTNERS